Skip Page Navigation
NASA JPL Caltech
NASA Logo - Jet Propulsion Laboratory + View the NASA Portal
+ Center for Near-Earth Object Studies
JPL Home Earth Solar System Stars & Galaxies Technology
JPL Solar System Dynamics
BODIES ORBITS EPHEMERIDES TOOLS PHYSICAL DATA DISCOVERY FAQ SITE MAP
JPL Small-Body Database Browser
Search: [ help ]  
26508 Jimmylin (2000 CD29)
Classification: Main-belt Asteroid          SPK-ID: 2026508
Ephemeris | Orbit Diagram | Orbital Elements | Mission Design | Physical Parameters | Discovery Circumstances | Close-Approach Data ]

[ show orbit diagram ]
Orbital Elements at Epoch 2459000.5 (2020-May-31.0) TDB
Reference: JPL 21 (heliocentric ecliptic J2000)
 Element Value Uncertainty (1-sigma)   Units 
e .175044555530024 2.9388e-08  
a 2.386817036489258 7.621e-09 au
q 1.969017709205507 7.0187e-08 au
i 1.442543002812037 3.7405e-06 deg
node 254.697016694395 0.00014561 deg
peri 13.46773413969265 0.00014611 deg
M 78.08158857671803 1.1379e-05 deg
tp 2458708.371949678102
(2019-Aug-12.87194968)
4.268e-05 TDB
period 1346.874468525363
3.69
6.4507e-06
1.766e-08
d
yr
n .267285488301036 1.2801e-09 deg/d
Q 2.80461636377301 8.955e-09 au
  Orbit Determination Parameters
   # obs. used (total)      1161  
   data-arc span      10095 days (27.64 yr)  
   first obs. used      1993-03-26  
   last obs. used      2020-11-14  
   planetary ephem.      DE431  
   SB-pert. ephem.      SB431-N16  
   condition code      0  
   norm. resid. RMS      .52363  
   source      ORB  
   producer      Otto Matic  
   solution date      2020-Dec-17 20:51:06  

Additional Information
 Earth MOID = .953018 au 
 Jupiter MOID = 2.28464 au 
 T_jup = 3.513 
[ show covariance matrix ]

Ephemeris | Orbit Diagram | Orbital Elements | Mission Design | Physical Parameters | Discovery Circumstances | Close-Approach Data ]

Physical Parameter Table
Parameter Symbol Value Units Sigma Reference Notes
absolute magnitude H 15.5   n/a MPO431807  

26508 Jimmylin           Discovered 2000 Feb. 2 by the Lincoln Laboratory Near-Earth Asteroid Research Team at Socorro.
Jimmy Lin (b. 1994) was awarded second place in the 2010 Intel International Science and Engineering Fair for his environomental-management team project. He attends the Robert Louis Stevenson Upper School, Pebble Beach, California, U.S.A.
NOTE: some special characters may not display properly (any characters within {} are an attempt to place the proper accent above a character)
Reference: 20110319/MPCPages.arcLast Updated: 2011-03-23

[ show close-approach data ]
Ephemeris | Orbit Diagram | Orbital Elements | Mission Design | Physical Parameters | Discovery Circumstances | Close-Approach Data ]
ABOUT SSD CREDITS/AWARDS PRIVACY/COPYRIGHT GLOSSARY LINKS
FirstGov 2021-Jan-28 12:49 UT
(server date/time)  
NASA Home Page
Site Manager:   Ryan S. Park
Webmaster  Alan B. Chamberlin